FW4407 Weather Reports


time (UTC)temp
C
wind
direction
speed
KPH
gust
KPH
rain 1hr
cm
rain 24hr
cm
rain mn
cm
humidity
%
barometer
mb
20260508105029 21 0.0 0.0 0.00 0.00 0.00 49 1017.0
20260508104017 21 268 0.0 3.2 0.00 0.00 0.00 50 1017.2
20260508103022 21 288 1.6 8.0 0.00 0.00 0.00 50 1017.4
20260508102026 21 0.0 0.0 0.00 0.00 0.00 51 1017.3
20260508101015 21 271 0.0 8.0 0.00 0.00 0.00 52 1017.4
20260508100019 21 243 0.0 8.0 0.00 0.00 0.00 52 1017.5
20260508095045 21 262 1.6 8.0 0.00 0.00 0.00 52 1017.8
20260508094031 21 176 0.0 3.2 0.00 0.00 0.00 51 1018.1
20260508093038 21 280 0.0 8.0 0.00 0.00 0.00 49 1017.9
20260508092023 21 250 3.2 12.9 0.00 0.00 0.00 50 1018.0
20260508091028 20 219 1.6 12.9 0.00 0.00 0.00 51 1018.0
20260508090016 20 248 0.0 8.0 0.00 0.00 0.00 53 1018.1
20260508085020 20 235 1.6 12.9 0.00 0.00 0.00 55 1018.1
20260508084025 20 325 0.0 3.2 0.00 0.00 0.00 55 1018.2
20260508083031 20 0.0 0.0 0.00 0.00 0.00 53 1018.1
20260508082019 20 317 0.0 3.2 0.00 0.00 0.00 53 1018.2
20260508081024 20 235 0.0 8.0 0.00 0.00 0.00 52 1018.3
20260508080028 20 336 0.0 8.0 0.00 0.00 0.00 50 1018.4
20260508075016 20 253 3.2 12.9 0.00 0.00 0.00 48 1018.5
20260508074021 20 234 0.0 8.0 0.00 0.00 0.00 47 1018.5
20260508073027 20 201 0.0 8.0 0.00 0.00 0.00 46 1018.5
20260508072032 20 263 1.6 8.0 0.00 0.00 0.00 46 1018.7
20260508071019 20 245 1.6 8.0 0.00 0.00 0.00 45 1018.8
20260508070025 19 252 1.6 8.0 0.00 0.00 0.00 44 1019.1
20260508065030 19 259 0.0 3.2 0.00 0.00 0.00 44 1018.8
20260508064018 19 246 3.2 12.9 0.00 0.00 0.00 44 1018.8
20260508063023 19 258 0.0 3.2 0.00 0.00 0.00 46 1018.5
20260508062028 19 309 0.0 3.2 0.00 0.00 0.00 47 1018.5
20260508061015 19 271 0.0 3.2 0.00 0.00 0.00 48 1018.4
20260508060020 19 298 0.0 3.2 0.00 0.00 0.00 49 1017.9
20260508055026 19 278 0.0 8.0 0.00 0.00 0.00 50 1017.6
20260508054031 19 242 0.0 3.2 0.00 0.00 0.00 50 1017.4
20260508053038 18 0.0 0.0 0.00 0.00 0.00 50 1017.1
20260508052024 18 0.0 0.0 0.00 0.00 0.00 51 1016.9
20260508051029 18 0.0 0.0 0.00 0.00 0.00 51 1016.8
20260508050017 18 0.0 0.0 0.00 0.00 0.00 51 1016.8
20260508045021 18 0.0 0.0 0.00 0.00 0.00 52 1016.8
20260508044027 18 0.0 0.0 0.00 0.00 0.00 51 1016.8
20260508043052 18 0.0 0.0 0.00 0.00 0.00 50 1016.3
20260508042019 18 0.0 0.0 0.00 0.00 0.00 52 1016.2
20260508041025 18 0.0 0.0 0.00 0.00 0.00 53 1016.1
20260508040050 18 0.0 0.0 0.00 0.00 0.00 53 1016.0
20260508035017 18 0.0 0.0 0.00 0.00 0.00 54 1015.9
20260508034042 18 0.0 0.0 0.00 0.00 0.00 54 1015.9
20260508033028 18 0.0 0.0 0.00 0.00 0.00 54 1015.9
20260508032056 18 0.0 0.0 0.00 0.00 0.00 54 1015.9
20260508031020 17 0.0 0.0 0.00 0.00 0.00 52 1015.8
20260508030025 17 117 0.0 3.2 0.00 0.00 0.00 56 1015.8
20260508025031 17 0.0 0.0 0.00 0.00 0.00 58 1015.9
20260508024018 17 0.0 0.0 0.00 0.00 0.00 58 1015.9
20260508023043 17 0.0 0.0 0.00 0.00 0.00 59 1016.0
20260508022029 17 0.0 0.0 0.00 0.00 0.00 60 1015.9
20260508021016 17 0.0 0.0 0.00 0.00 0.00 61 1015.9
20260508020021 17 0.0 0.0 0.00 0.00 0.00 61 1016.0
20260508015026 17 0.0 0.0 0.00 0.00 0.00 61 1015.9
20260508014031 17 0.0 0.0 0.00 0.00 0.00 62 1016.2
20260508013019 17 0.0 0.0 0.00 0.00 0.00 63 1016.2
20260508012024 17 0.0 0.0 0.00 0.00 0.00 63 1016.2
20260508011030 17 0.0 0.0 0.00 0.00 0.00 63 1016.5
20260508010017 17 0.0 0.0 0.00 0.00 0.00 64 1016.5
20260508005023 17 0.0 0.0 0.00 0.00 0.00 64 1016.7
20260508004027 17 0.0 0.0 0.00 0.00 0.00 64 1016.6
20260508003016 17 0.0 0.0 0.00 0.00 0.00 64 1016.6
20260508002020 17 0.0 0.0 0.00 0.00 0.00 64 1016.8
20260508001025 17 0.0 0.0 0.00 0.00 0.00 64 1016.7
20260508000030 17 0.0 0.0 0.00 0.00 0.00 64 1016.9
20260507235038 17 0.0 0.0 0.00 0.00 0.00 64 1017.1
20260507234043 17 0.0 0.0 0.00 0.00 0.00 63 1017.3
20260507233028 17 0.0 0.0 0.00 0.00 0.00 62 1017.4
20260507232016 17 0.0 0.0 0.00 0.00 0.00 61 1017.3
20260507231021 17 0.0 0.0 0.00 0.00 0.00 61 1017.3
20260507230026 17 0.0 0.0 0.00 0.00 0.00 60 1017.5
20260507225031 18 0.0 0.0 0.00 0.00 0.00 60 1017.6
20260507224039 18 0.0 0.0 0.00 0.00 0.00 59 1017.6
20260507223024 18 0.0 0.0 0.00 0.00 0.00 58 1017.6
20260507222029 18 0.0 0.0 0.00 0.00 0.00 57 1017.6
20260507221018 18 0.0 0.0 0.00 0.00 0.00 56 1017.6
20260507220022 18 0.0 0.0 0.00 0.00 0.00 55 1017.7
20260507215017 18 0.0 0.0 0.00 0.00 0.00 54 1017.9
20260507214022 18 0.0 0.0 0.00 0.00 0.00 52 1017.9
20260507213047 18 278 0.0 3.2 0.00 0.00 0.00 51 1017.9
20260507212016 18 0.0 0.0 0.00 0.00 0.00 51 1018.2
20260507211020 18 0.0 0.0 0.00 0.00 0.00 50 1018.3
20260507210025 18 0.0 0.0 0.00 0.00 0.00 50 1018.1
20260507205030 18 0.0 0.0 0.00 0.00 0.00 51 1018.1
20260507204038 18 0.0 0.0 0.00 0.00 0.00 51 1017.9
20260507203023 18 0.0 0.0 0.00 0.00 0.00 50 1017.9
20260507202033 18 0.0 0.0 0.00 0.00 0.00 50 1018.0
20260507201016 18 157 0.0 8.0 0.00 0.00 0.00 49 1017.9
20260507200021 18 0.0 0.0 0.00 0.00 0.00 48 1017.9
20260507195046 18 0.0 0.0 0.00 0.00 0.00 48 1018.0
20260507194031 19 132 1.6 8.0 0.00 0.00 0.00 47 1017.7
20260507193019 19 131 1.6 8.0 0.00 0.00 0.00 47 1017.8
20260507192024 19 0.0 0.0 0.00 0.00 0.00 48 1017.6
20260507191029 19 0.0 0.0 0.00 0.00 0.00 49 1017.7
20260507190017 19 0.0 0.0 0.00 0.00 0.00 49 1017.8
20260507185022 19 0.0 0.0 0.00 0.00 0.00 50 1017.9
20260507184027 19 0.0 0.0 0.00 0.00 0.00 49 1017.7
20260507183015 20 0.0 0.0 0.00 0.00 0.00 49 1017.6
20260507182040 20 0.0 0.0 0.00 0.00 0.00 49 1017.6
20260507181045 20 0.0 0.0 0.00 0.00 0.00 47 1017.5
20260507180030 20 0.0 0.0 0.00 0.00 0.00 47 1017.5
20260507175038 20 290 0.0 3.2 0.00 0.00 0.00 46 1017.3
20260507174043 20 15 0.0 3.2 0.00 0.00 0.00 46 1017.5
20260507173048 21 0.0 0.0 0.00 0.00 0.00 47 1017.5
20260507172016 21 0.0 0.0 0.00 0.00 0.00 46 1017.5
20260507171021 21 210 0.0 3.2 0.00 0.00 0.00 36 1017.1
20260507170026 21 0.0 0.0 0.00 0.00 0.00 37 1016.9
20260507165031 22 0.0 0.0 0.00 0.00 0.00 36 1016.8
20260507164039 22 0.0 0.0 0.00 0.00 0.00 36 1016.7
20260507163024 22 185 0.0 8.0 0.00 0.00 0.00 35 1016.8
20260507162029 22 251 0.0 8.0 0.00 0.00 0.00 34 1016.9
20260507161017 22 235 0.0 3.2 0.00 0.00 0.00 34 1017.0
20260507160022 23 254 1.6 8.0 0.00 0.00 0.00 35 1016.9
20260507155027 23 230 0.0 8.0 0.00 0.00 0.00 35 1017.0
20260507154015 23 253 1.6 12.9 0.00 0.00 0.00 33 1017.1
20260507153020 24 244 4.8 16.1 0.00 0.00 0.00 32 1017.3
20260507152025 24 224 3.2 12.9 0.00 0.00 0.00 32 1017.5
20260507151030 24 240 1.6 12.9 0.00 0.00 0.00 32 1017.2
20260507150018 24 253 1.6 16.1 0.00 0.00 0.00 32 1017.4
20260507145023 24 254 1.6 16.1 0.00 0.00 0.00 32 1017.2
20260507144028 24 223 3.2 12.9 0.00 0.00 0.00 32 1017.3
20260507143016 25 240 4.8 16.1 0.00 0.00 0.00 32 1017.3
20260507142021 25 240 4.8 16.1 0.00 0.00 0.00 31 1017.2
20260507141046 25 240 4.8 16.1 0.00 0.00 0.00 30 1017.1
20260507140031 26 237 4.8 16.1 0.00 0.00 0.00 29 1016.9
20260507135019 26 229 4.8 16.1 0.00 0.00 0.00 29 1016.9
20260507134024 25 236 4.8 16.1 0.00 0.00 0.00 29 1016.8
20260507133029 25 237 1.6 12.9 0.00 0.00 0.00 30 1016.8
20260507132017 24 234 3.2 20.9 0.00 0.00 0.00 37 1016.8
20260507131042 23 278 1.6 12.9 0.00 0.00 0.00 41 1016.8
20260507130027 23 258 1.6 8.0 0.00 0.00 0.00 44 1017.1
20260507125015 24 269 3.2 12.9 0.00 0.00 0.00 44 1017.2
20260507124020 24 249 3.2 16.1 0.00 0.00 0.00 43 1017.2
20260507123045 25 245 3.2 12.9 0.00 0.00 0.00 45 1017.2
20260507122030 25 266 3.2 12.9 0.00 0.00 0.00 44 1017.5
20260507121018 25 258 3.2 16.1 0.00 0.00 0.00 43 1017.5
20260507120023 25 20 1.6 8.0 0.00 0.00 0.00 43 1017.5
20260507115028 25 270 3.2 16.1 0.00 0.00 0.00 46 1017.6
20260507114016 25 239 3.2 12.9 0.00 0.00 0.00 45 1017.6
20260507113041 25 244 3.2 12.9 0.00 0.00 0.00 44 1017.6
20260507112027 25 226 4.8 12.9 0.00 0.00 0.00 46 1017.9
20260507111031 25 283 4.8 16.1 0.00 0.00 0.00 49 1017.6
20260507110039 25 275 1.6 12.9 0.00 0.00 0.00 51 1017.6